sat.trackr.live / text

‹ back to catalog

STARLINK-32035

NORAD 60107 · 2024-117S

PAYLOAD ACTIVE UNKNOWN

§ Identity

Operator
Country
US
Launch date
2024-06-23
Launch site
AFETR
Launch vehicle
Mass (kg)
RCS (m²)

Purposes: comms

External: N2YO · Heavens-Above · Gunter

§ Orbital elements

Epoch: 2026-09-21T05:57:34.921440Z

Period
93.85 min
Inclination
53.1583°
Eccentricity
0.0001385
Mean motion
15.34392096 rev/d
Perigee alt
461.8 km
Apogee alt
463.7 km
Semi-major
6,840.9 km
B*
1.8181e-5
RAAN
206.2015°
Arg perigee
86.4977°
Mean anomaly
273.6184°
Rev number
12,686

§ Raw data

STARLINK-320351 60107U 24117S   26264.24832085  .00000238  00000+0  18181-4 0  99962 60107  53.1583 206.2015 0001385  86.4977 273.6184 15.34392096126861

JSON: /api/v1/satellites/60107 · /tle

For live sub-satellite position, see the globe view (requires WebGL).

§ Visibility from observer

Set your observer location to see the next 7 days of passes ≥ 10°. The values pass through the URL so the page stays shareable.

No JS? Fill the form by hand. The geolocation button needs JavaScript.